LB9CG Weather Reports


time (UTC)temp
F
wind
direction
speed
knots
gust
knots
rain 1hr
in
rain 24hr
in
rain mn
in
humidity
%
barometer
mb
20260506220036 36 0.0 0.9 0.00 0.00 0.00 92 1010.6
20260506215017 35 225 0.9 2.6 0.00 0.00 0.00 92 1010.5
20260506214037 35 0.0 0.9 0.00 0.00 0.00 91 1010.4
20260506213016 35 0.0 0.9 0.00 0.00 0.00 91 1010.4
20260506212016 35 0.0 0.9 0.00 0.00 0.00 90 1010.4
20260506211016 35 0.0 0.9 0.00 0.00 0.00 90 1010.3
20260506210016 35 0.0 0.9 0.00 0.00 0.00 89 1010.2
20260506205016 35 0.0 0.9 0.00 0.00 0.00 89 1010.2
20260506204016 35 0.0 0.9 0.00 0.00 0.00 87 1010.2
20260506203036 36 0.0 1.7 0.00 0.00 0.00 87 1010.2
20260506202017 36 0.0 0.9 0.00 0.00 0.00 85 1010.2
20260506201016 37 180 0.9 2.6 0.00 0.00 0.00 85 1010.2
20260506200016 37 158 0.9 3.5 0.00 0.00 0.00 86 1010.1
20260506195016 37 135 2.6 8.7 0.00 0.00 0.00 86 1010.2
20260506194016 37 0.0 1.7 0.00 0.00 0.00 86 1010.1
20260506193056 37 225 1.7 4.3 0.00 0.00 0.00 85 1010.0
20260506192016 38 225 1.7 5.2 0.00 0.00 0.00 83 1010.1
20260506191036 39 248 2.6 7.8 0.00 0.00 0.00 81 1010.0
20260506190016 40 248 2.6 7.8 0.00 0.00 0.00 79 1010.1
20260506185036 41 203 2.6 5.2 0.00 0.00 0.00 79 1009.8
20260506184016 41 0.0 0.9 0.00 0.00 0.00 78 1009.7
20260506183016 41 248 0.9 2.6 0.00 0.00 0.00 77 1009.6
20260506182016 42 0.0 2.6 0.00 0.00 0.00 75 1009.7
20260506181036 44 0.0 1.7 0.00 0.00 0.00 73 1009.7
20260506180016 43 158 0.9 2.6 0.00 0.00 0.00 75 1009.6
20260506175016 42 225 1.7 5.2 0.00 0.00 0.00 76 1009.7
20260506174016 42 225 0.9 3.5 0.00 0.00 0.00 76 1009.7
20260506173016 43 225 0.9 5.2 0.00 0.00 0.00 74 1009.7
20260506172016 44 225 0.9 5.2 0.00 0.00 0.00 75 1009.6
20260506171017 44 225 2.6 7.0 0.00 0.00 0.00 74 1009.6
20260506170016 44 225 2.6 9.6 0.00 0.00 0.00 73 1009.4
20260506165016 44 225 1.7 4.3 0.00 0.00 0.00 76 1009.4
20260506164016 44 135 2.6 6.1 0.00 0.00 0.00 77 1009.5
20260506163016 44 158 3.5 6.1 0.00 0.00 0.00 75 1009.4
20260506162016 44 158 1.7 4.3 0.00 0.00 0.00 74 1009.5
20260506161036 45 225 2.6 5.2 0.00 0.00 0.00 73 1009.5
20260506160016 45 203 2.6 6.1 0.00 0.00 0.00 74 1009.5
20260506155016 44 135 0.9 2.6 0.00 0.00 0.00 77 1009.5
20260506154016 43 225 2.6 7.0 0.00 0.00 0.00 74 1009.4
20260506153035 45 293 2.6 7.0 0.00 0.00 0.00 73 1009.4
20260506152016 44 225 1.7 7.0 0.00 0.00 0.00 76 1009.3
20260506151016 43 113 1.7 4.3 0.00 0.00 0.00 80 1009.3
20260506150016 43 225 0.9 5.2 0.00 0.00 0.00 81 1009.3
20260506145036 42 158 1.7 4.3 0.00 0.00 0.00 83 1009.4
20260506144016 42 225 1.7 6.1 0.00 0.00 0.00 86 1009.4
20260506143015 41 270 1.7 7.0 0.00 0.00 0.00 86 1009.4
20260506142016 41 293 2.6 7.0 0.00 0.00 0.00 86 1009.4
20260506141015 41 0.0 0.9 0.00 0.00 0.00 90 1009.4
20260506140015 40 90 4.3 7.0 0.00 0.00 0.00 88 1009.4
20260506135016 42 90 2.6 5.2 0.00 0.00 0.00 89 1009.2
20260506134016 41 293 0.9 2.6 0.00 0.00 0.00 89 1009.3
20260506133015 41 23 1.7 4.3 0.00 0.00 0.00 92 1009.4
20260506132016 39 0 0.9 2.6 0.00 0.00 0.00 90 1009.5
20260506131036 39 338 0.9 2.6 0.00 0.00 0.00 91 1009.5
20260506130015 38 23 0.9 1.7 0.00 0.00 0.00 90 1009.5
20260506125036 38 0 0.9 2.6 0.00 0.00 0.00 90 1009.5
20260506124015 38 0.0 0.9 0.00 0.00 0.00 91 1009.3
20260506123015 37 0.0 1.7 0.00 0.00 0.00 91 1009.2
20260506122035 37 23 0.9 2.6 0.00 0.00 0.00 89 1009.3
20260506121015 38 293 2.6 6.1 0.00 0.00 0.00 86 1009.3
20260506120015 41 270 3.5 11.3 0.00 0.00 0.00 80 1009.1
20260506115015 44 135 2.6 7.8 0.00 0.00 0.00 75 1008.6
20260506114015 43 248 2.6 10.4 0.00 0.00 0.00 74 1008.6
20260506113015 44 225 2.6 7.8 0.00 0.00 0.00 75 1008.6
20260506112017 42 203 1.7 5.2 0.00 0.00 0.00 78 1008.6
20260506111038 43 270 4.3 14.8 0.00 0.00 0.00 75 1008.5
20260506110017 44 225 1.7 4.3 0.00 0.00 0.00 78 1008.5
20260506105037 43 270 3.5 9.6 0.00 0.00 0.00 78 1008.3
20260506104018 43 203 2.6 9.6 0.00 0.00 0.00 79 1008.2
20260506102017 42 293 1.7 5.2 0.00 0.00 0.00 88 1008.0
20260506101017 41 248 0.9 3.5 0.00 0.00 0.00 90 1008.0
20260506100017 40 293 0.9 1.7 0.00 0.00 0.00 91 1007.9
20260506095017 39 293 0.9 1.7 0.00 0.00 0.00 90 1007.9
20260506094017 39 293 0.9 2.6 0.00 0.00 0.00 90 1007.9
20260506093017 39 0.0 1.7 0.00 0.00 0.00 90 1007.9
20260506092017 38 23 1.7 3.5 0.00 0.00 0.00 88 1007.8
20260506091017 40 45 1.7 5.2 0.00 0.00 0.00 85 1007.6
20260506090017 42 293 2.6 7.0 0.00 0.00 0.00 81 1007.6
20260506085017 43 225 0.9 5.2 0.00 0.00 0.00 87 1007.5
20260506084017 40 23 0.9 2.6 0.00 0.00 0.00 89 1007.5
20260506083017 38 158 1.7 7.0 0.00 0.00 0.00 90 1007.5
20260506082017 39 0 0.9 2.6 0.00 0.00 0.00 91 1007.5
20260506081017 38 293 0.9 2.6 0.00 0.00 0.00 90 1007.5
20260506073017 40 0.0 0.9 0.00 0.00 0.00 89 1007.0
20260506072017 39 0.0 0.9 0.00 0.00 0.00 90 1007.0
20260506071017 39 293 0.9 2.6 0.00 0.00 0.00 89 1007.0
20260506062017 39 203 1.7 4.3 0.00 0.00 0.00 87 1006.6
20260506061016 40 225 0.9 4.3 0.00 0.00 0.00 88 1006.5
20260506051037 37 158 0.9 3.5 0.00 0.00 0.00 95 1006.2
20260506045016 37 0.0 1.7 0.00 0.00 0.00 95 1006.2
20260506044016 36 0.0 0.9 0.00 0.00 0.00 95 1006.2
20260506043037 36 0.0 0.9 0.00 0.00 0.00 95 1006.2
20260506042016 36 0.0 0.9 0.00 0.00 0.00 96 1006.2
20260506041016 35 158 0.9 2.6 0.00 0.00 0.00 96 1006.2
20260506040016 35 45 1.7 6.1 0.00 0.00 0.00 95 1006.1
20260506035016 36 0.0 1.7 0.00 0.00 0.00 96 1006.1
20260506034016 35 270 1.7 7.8 0.00 0.00 0.00 96 1006.1
20260506033016 34 248 0.9 2.6 0.00 0.00 0.00 95 1005.6
20260506032016 34 0.0 1.7 0.00 0.00 0.00 95 1005.8
20260506031016 34 180 0.9 2.6 0.00 0.00 0.00 95 1005.8
20260506030016 34 0.0 1.7 0.00 0.00 0.00 95 1006.0
20260506025017 34 293 1.7 7.0 0.00 0.00 0.00 94 1006.2
20260506024016 34 293 0.9 8.7 0.00 0.00 0.00 94 1006.2
20260506023016 34 293 1.7 5.2 0.00 0.00 0.00 93 1006.1
20260506022016 35 45 0.9 1.7 0.00 0.00 0.00 94 1005.8
20260506021016 35 90 0.9 5.2 0.00 0.00 0.00 93 1005.5
20260506020016 36 293 3.5 9.6 0.00 0.00 0.00 93 1005.9
20260506015016 36 248 1.7 6.1 0.00 0.00 0.00 94 1005.6
20260506014036 35 203 1.7 5.2 0.00 0.00 0.00 95 1005.7
20260506013016 35 225 0.9 3.5 0.00 0.00 0.00 94 1005.7
20260506012016 35 225 1.7 5.2 0.00 0.00 0.00 94 1005.5
20260506011016 35 225 2.6 6.1 0.00 0.00 0.00 94 1005.4
20260506010016 36 248 1.7 7.0 0.00 0.00 0.00 94 1005.3
20260506005016 36 248 0.9 5.2 0.00 0.00 0.00 94 1005.4
20260506004016 36 225 0.9 5.2 0.00 0.00 0.00 94 1005.2
20260506003036 36 225 1.7 7.8 0.00 0.00 0.00 94 1005.2
20260506002016 36 293 2.6 7.8 0.00 0.00 0.00 93 1005.2
20260506001016 36 293 4.3 10.4 0.00 0.00 0.00 93 1005.2
20260506000016 37 293 3.5 9.6 0.00 0.00 0.00 93 1005.1
20260505235016 37 293 4.3 7.8 0.00 0.00 0.00 92 1005.0
20260505234016 37 293 2.6 10.4 0.00 0.00 0.00 93 1005.0
20260505233016 37 225 1.7 7.0 0.00 0.00 0.00 93 1005.0
20260505232016 36 293 2.6 7.0 0.00 0.00 0.00 94 1005.0
20260505231036 36 248 1.7 7.0 0.00 0.00 0.00 94 1005.1
20260505230016 36 225 2.6 7.0 0.00 0.00 0.00 95 1005.1
20260505225016 36 270 2.6 10.4 0.00 0.00 0.00 95 1005.2
20260505224016 36 270 1.7 7.0 0.00 0.00 0.00 96 1005.1
20260505223016 35 225 1.7 4.3 0.00 0.00 0.00 95 1005.0
20260505222035 34 180 2.6 7.0 0.00 0.00 0.00 94 1005.0
20260505221036 35 225 2.6 11.3 0.00 0.00 0.00 94 1004.9